Back to catalog

COSMOS 2251 DEB

AliveLEO
NORAD 36053·DEBRIS·🇷🇺 Russia

Launched Jun 16, 1993 from Plesetsk Cosmodrome

Loading…

Next Passes (next 24 hours)

TLE

FreshSource: Space-Track

Epoch: Sep 13, 2026, 05:51 UTC

1 36053U 93036AXQ 26256.24429027  .00003543  00000-0  73183-3 0  9999
2 36053  73.8729 344.3331 0029404 238.2444 121.5855 14.60514541914486

Track COSMOS 2251 DEB in real time with AllMySat

Download on the App Store